Wind_Gust
11 15 11 14 15 17 17 17 17 19 17 15 14 13 21 13 14 16 17 11 14 18 13 11 13 16 15 20 16 15 12 15 20 21 21 17 12 13 16 13 20 24 25 25 25 27 27 22 21 22 24 24 24 22 21 20 19 19 17 18 18 18 18 17 17 17 17 16 16 16 16 16 15 15 15 14 13 12 12 11 11 12 10 9 9 10 9 9 10 11 14 13 13 15 17 17 16
15 11 13 13 17 18 15 12 21 14 16 18 21 12 18 13 14 15 15 15 14 17 14 11 14 11 9 10 12 15 14 17 18 19 17 15 18 16 15 19 23 24 22 23 24 25 26 28 21 22 24 25 24 22 21 20 19 18 18 18 19 19 18 17 17 17 17 17 17 16 16 14 13 13 12 13 14 12 12 11 10 11 9 8 6 7 8 9 12 13 13 15 15 16 17 17 18
12 14 16 16 17 19 17 14 17 20 24 22 22 21 13 13 15 13 15 14 14 10 10 11 10 11 13 12 13 19 23 12 12 15 18 17 19 16 15 18 23 23 22 23 23 23 23 24 19 20 21 23 23 22 21 20 19 19 18 18 19 19 19 18 18 18 17 17 17 17 16 16 15 13 11 12 13 13 12 12 10 9 7 6 7 8 10 12 14 15 13 15 18 17 17 17 16
11 11 17 14 19 17 15 15 13 15 26 19 21 15 15 14 16 14 12 14 12 11 10 13 13 14 13 14 15 14 17 19 16 15 18 14 18 22 19 19 20 22 23 23 24 24 21 21 18 18 19 21 22 21 20 19 19 19 19 18 19 19 19 18 18 18 17 17 16 16 16 15 15 14 13 11 12 12 11 11 10 9 9 12 12 11 11 12 12 15 16 16 17 17 17 17 15
14 12 14 17 19 13 16 11 13 14 24 18 18 16 14 13 14 14 12 11 11 11 12 12 11 14 14 13 11 21 21 20 17 14 21 18 20 23 20 20 20 21 21 21 22 22 21 21 18 18 18 20 21 20 20 19 18 18 18 19 18 18 19 18 18 17 17 16 16 15 15 15 15 14 14 13 13 11 10 9 8 9 12 12 12 12 15 15 14 15 16 16 17 18 17 16 15
14 15 12 18 17 17 22 15 15 24 23 17 15 20 14 15 12 13 15 14 11 11 10 12 18 13 14 15 15 19 17 18 10 16 17 20 21 21 20 19 20 20 20 19 19 20 25 22 18 18 18 18 19 19 19 19 18 18 18 19 19 18 17 17 17 17 17 16 16 15 15 15 14 13 11 12 13 12 10 8 8 10 14 12 13 15 17 15 14 15 15 16 17 17 17 15 14
15 16 20 16 16 16 14 21 21 19 26 16 21 18 18 16 14 13 12 10 11 10 8 12 9 11 14 14 15 18 17 11 10 13 14 24 21 20 20 20 20 20 19 19 19 21 25 21 18 17 17 18 19 20 20 19 19 19 19 19 19 18 17 17 17 17 16 15 15 15 14 14 14 13 12 13 12 11 9 9 8 10 14 14 16 15 15 15 14 14 15 16 17 17 16 14 13
10 18 11 20 13 19 18 20 24 21 23 17 15 19 20 19 15 12 11 12 15 14 14 10 10 14 18 11 17 14 17 18 18 22 27 26 22 19 19 20 21 20 19 18 19 23 23 20 18 16 17 18 19 19 19 19 19 18 19 18 18 18 17 16 16 16 15 15 14 14 13 13 12 12 12 11 10 10 9 9 10 11 13 14 15 17 15 14 15 14 15 15 17 17 15 13 12
16 19 11 19 14 14 19 21 21 15 20 20 20 18 20 19 16 15 14 10 9 10 13 14 11 15 17 14 17 17 19 16 18 21 25 26 23 20 21 20 22 20 18 19 22 24 25 19 18 17 17 19 19 19 20 19 21 21 20 19 19 18 17 16 16 15 15 14 13 13 13 12 12 12 11 10 10 10 10 11 11 12 14 16 17 18 16 13 14 15 14 15 15 15 14 12 11
18 15 12 17 15 17 18 20 19 20 19 19 19 22 22 20 15 13 14 11 13 8 11 9 12 14 12 18 20 17 20 18 22 23 23 23 23 19 19 19 20 21 20 22 24 26 25 22 19 19 16 18 19 18 19 19 20 19 19 19 19 18 17 16 15 15 14 13 13 12 12 11 11 11 10 10 9 9 9 9 11 12 15 15 15 17 17 14 14 13 13 14 14 15 13 11 10
18 15 11 18 16 18 21 18 20 16 18 18 19 22 20 20 16 13 13 11 10 11 11 10 15 14 11 15 18 16 18 19 22 25 22 23 22 21 21 20 19 20 23 21 22 24 27 26 22 19 18 16 16 16 15 17 18 18 19 18 18 18 17 17 16 15 14 13 12 12 11 11 11 10 10 10 9 9 9 9 10 12 14 14 14 15 16 16 14 14 12 12 13 14 12 10 9
18 17 14 15 18 19 17 17 18 20 19 16 21 20 21 20 13 15 13 13 11 12 12 16 16 13 15 14 19 19 18 19 22 24 23 23 24 21 21 20 18 18 18 20 20 22 24 25 24 21 18 17 14 15 15 15 16 16 17 17 17 17 16 16 16 15 14 14 13 12 11 10 11 10 10 10 9 9 9 9 8 9 10 12 14 16 15 16 15 14 11 11 11 10 11 9 7
18 15 14 12 17 13 14 13 19 17 17 20 18 23 19 19 20 18 16 13 9 10 15 19 10 12 18 15 23 23 21 18 21 23 23 23 24 23 21 22 20 18 18 17 18 19 20 20 22 23 19 17 15 16 16 15 15 16 16 16 16 16 16 16 16 16 15 14 14 13 12 11 11 10 10 10 10 10 9 8 8 8 10 10 12 14 15 15 15 14 14 11 12 10 10 8 7
18 17 19 14 12 13 14 15 13 17 20 17 15 17 18 18 18 18 16 15 15 14 15 13 15 11 13 13 22 22 22 19 22 21 24 23 23 24 22 22 21 20 18 17 19 20 18 18 19 20 22 20 20 17 15 15 16 16 16 15 15 15 15 15 15 16 15 14 14 14 13 13 12 12 11 10 10 10 10 9 9 8 9 10 9 12 14 15 14 13 13 13 10 10 9 9 8
16 13 16 14 10 14 15 19 18 16 20 17 16 18 19 12 15 16 16 16 20 13 10 10 13 14 20 13 20 21 24 22 23 23 24 23 23 24 22 23 21 20 19 19 19 19 20 21 23 23 21 21 22 19 19 21 17 15 15 14 14 14 14 14 14 14 15 14 15 14 14 14 13 13 13 12 11 11 10 10 10 9 8 7 9 10 12 13 13 13 13 12 12 10 10 9 8
13 17 16 15 14 17 19 16 13 15 21 19 15 10 19 14 9 15 16 15 13 9 11 17 14 17 15 18 21 25 25 24 24 25 27 26 24 22 23 22 21 19 18 19 19 19 19 19 19 22 22 22 20 19 20 20 18 16 15 14 14 13 14 13 13 14 14 14 15 14 14 13 12 13 13 14 12 12 11 11 12 9 9 8 8 9 9 10 11 12 11 11 11 10 10 9 8
12 16 18 12 13 14 19 18 17 21 24 23 14 15 23 24 13 11 11 10 14 11 14 9 18 12 13 22 24 27 27 25 24 26 26 25 25 24 22 21 21 18 17 19 19 20 19 19 18 18 19 19 19 18 19 19 21 19 17 15 15 13 12 13 12 13 13 13 13 12 13 14 12 11 14 12 12 14 10 12 11 10 9 8 8 8 8 9 10 10 11 10 11 10 10 10 9
14 16 18 16 16 15 19 18 17 17 22 24 24 17 19 21 14 12 12 11 11 8 12 11 9 12 23 25 26 27 27 28 28 27 25 24 22 23 22 21 21 21 20 20 18 20 21 20 19 18 19 20 18 19 18 19 21 19 19 20 19 18 15 13 17 16 12 15 11 14 14 12 13 12 12 9 12 12 14 10 10 10 9 10 9 8 7 8 9 9 10 9 9 9 10 19 15
17 16 16 18 16 19 17 17 17 19 20 22 23 17 15 19 14 15 15 11 10 10 13 12 15 17 25 25 25 26 27 26 24 22 25 23 23 24 22 21 20 21 21 20 21 21 21 22 20 20 20 20 19 17 18 18 20 19 21 21 21 15 17 18 16 15 15 14 16 15 12 11 13 11 11 10 9 8 10 11 9 10 9 9 9 8 8 8 8 9 9 9 9 10 18 18 17
12 17 19 16 19 21 20 19 17 16 21 24 23 16 15 17 15 12 13 13 11 11 14 14 16 16 22 24 23 24 26 25 22 23 23 22 22 22 22 21 20 20 20 21 22 22 23 23 22 21 21 21 20 19 18 18 18 18 20 20 19 19 19 17 15 14 13 13 14 13 12 11 11 11 8 10 9 12 12 9 10 9 10 11 11 11 10 9 8 8 9 9 11 13 18 17 17
13 18 17 21 21 24 18 17 17 17 17 22 20 17 18 14 13 12 13 17 18 15 16 17 13 17 27 25 24 24 25 24 24 22 23 23 22 22 20 19 20 20 19 19 20 21 23 23 24 23 23 22 20 20 19 20 18 19 19 19 19 18 17 16 15 15 13 13 13 12 12 11 11 11 12 12 12 11 11 12 14 15 14 14 13 14 13 17 17 19 18 18 18 18 16 15 14
17 17 17 18 19 21 26 21 18 15 15 17 17 17 17 11 10 13 16 19 18 21 20 17 15 15 24 28 28 26 24 24 25 23 23 24 23 22 20 19 17 18 19 21 22 22 23 24 24 25 25 23 22 21 20 19 20 20 20 20 19 17 16 15 14 14 14 13 12 12 11 11 11 11 10 11 12 12 12 12 12 14 12 12 16 14 13 11 14 14 15 17 15 14 14 13 13
20 13 12 15 17 21 24 24 19 15 16 15 14 15 12 12 20 18 20 21 23 25 20 18 16 15 17 25 28 27 26 25 24 24 25 25 23 22 21 20 22 21 21 21 22 23 24 23 24 25 27 26 24 21 21 20 21 19 20 20 20 18 15 15 15 14 13 13 13 12 12 12 11 11 12 12 13 12 13 13 13 12 12 12 11 12 11 11 12 11 12 12 12 13 14 15 14
17 21 15 17 16 20 24 22 18 14 12 13 12 8 12 10 16 18 26 22 22 22 20 14 13 15 20 26 25 26 26 26 24 22 21 23 24 23 22 22 20 19 20 22 24 24 24 25 25 26 28 27 25 24 21 22 21 22 20 19 19 16 16 16 15 14 13 14 14 13 13 13 14 13 13 13 14 13 14 14 13 13 13 13 12 14 13 12 12 12 11 12 14 15 16 15 16
16 17 17 22 18 18 18 19 17 15 13 15 10 15 18 14 15 18 29 25 23 19 16 19 20 22 22 24 24 24 26 24 24 22 20 22 23 22 20 20 20 20 20 21 22 25 26 26 25 28 26 26 25 24 22 20 20 20 21 20 20 16 18 16 15 13 14 13 13 14 13 14 14 14 14 14 13 15 15 14 13 14 14 15 14 14 14 13 13 13 13 14 13 14 15 14 15
10 18 21 21 22 20 19 17 15 15 15 11 18 21 19 16 15 26 31 29 23 15 20 21 21 23 24 24 22 22 24 24 24 24 24 24 24 21 19 18 17 17 21 20 21 22 23 24 23 22 21 25 25 24 21 22 20 18 20 20 20 19 18 17 15 15 15 14 15 15 14 15 15 16 15 13 14 15 15 16 15 15 15 16 16 16 15 14 14 14 14 16 16 16 16 16 15
17 20 21 22 22 16 15 15 16 14 18 12 24 24 23 19 19 17 26 27 19 19 24 22 26 27 24 24 23 19 23 24 23 25 24 23 19 19 17 16 15 16 16 16 19 24 22 18 16 15 14 13 17 20 20 21 20 18 16 17 18 19 18 17 17 17 16 16 15 13 14 15 15 16 15 15 14 15 15 15 17 16 16 16 16 17 16 16 15 15 16 15 16 16 16 16 17
19 20 23 18 12 12 13 14 17 14 16 13 20 27 26 21 22 29 28 24 17 29 26 26 27 26 26 24 24 20 22 22 23 23 25 22 20 19 17 18 17 17 16 14 13 16 17 14 16 12 12 13 14 13 16 15 16 18 16 16 17 17 17 18 18 16 16 16 15 15 15 15 15 16 17 16 16 15 15 16 15 16 17 17 17 17 16 17 17 18 18 17 16 16 16 15 15
18 16 20 16 16 17 20 22 21 12 16 14 13 15 31 34 25 25 22 15 22 30 27 23 25 26 25 23 22 20 21 20 20 18 17 16 16 17 17 16 18 16 17 14 14 12 12 13 15 13 11 12 11 11 12 10 12 12 14 15 16 16 17 16 17 16 16 15 15 16 17 17 17 19 19 19 16 16 16 16 16 17 18 17 16 16 17 16 17 18 18 17 17 18 17 16 17
16 15 16 17 17 17 23 21 26 15 14 16 13 19 21 25 23 26 22 16 26 31 27 24 23 22 22 20 21 20 20 19 18 16 17 16 17 17 17 16 14 15 16 15 14 14 12 13 13 12 9 12 12 10 9 9 9 11 12 11 12 12 14 15 16 16 15 15 15 16 18 19 19 19 20 19 18 17 18 19 19 18 18 17 17 17 18 18 19 18 18 18 16 18 19 19 18
19 9 16 15 20 17 20 23 25 20 15 25 14 20 19 23 26 26 23 21 30 30 25 21 22 22 22 21 21 20 18 17 17 16 15 16 16 18 18 16 16 14 15 15 15 14 13 13 12 11 9 11 11 10 10 10 9 12 13 11 13 13 14 15 15 15 15 16 16 17 18 19 19 20 20 20 19 18 19 19 19 20 18 17 18 18 18 18 18 19 18 19 18 20 21 19 19
13 18 21 15 21 19 20 20 22 24 19 27 24 16 18 23 27 24 22 26 30 30 24 24 24 24 22 21 23 22 21 20 19 19 19 18 18 19 19 18 16 16 17 16 16 15 14 12 12 11 10 11 10 10 11 11 11 13 14 11 11 11 15 17 17 17 17 16 18 19 19 20 20 20 20 20 19 20 20 21 21 18 17 18 18 18 18 19 19 18 18 18 18 20 20 20 19
18 23 12 13 14 14 15 17 19 20 17 26 23 18 17 17 23 23 23 26 29 29 24 22 21 20 22 22 21 22 24 23 21 20 19 20 21 21 21 20 20 18 17 16 17 16 15 15 13 12 12 12 11 11 11 11 11 12 12 12 12 11 13 15 15 15 15 17 17 18 18 19 19 19 20 21 20 20 20 20 19 18 17 19 19 18 18 19 18 18 17 18 18 20 20 20 20
21 14 20 10 18 14 16 18 20 21 19 21 20 24 19 17 20 24 26 25 27 29 25 23 21 21 22 24 24 23 22 23 23 21 23 23 25 23 22 21 20 19 18 18 17 18 17 15 15 14 13 12 11 11 11 11 11 9 10 11 12 13 12 14 13 13 14 15 16 18 16 19 17 19 20 20 19 20 20 20 19 19 19 19 19 18 20 18 17 17 18 18 20 21 20 19 19
12 10 13 16 14 13 15 15 17 18 19 22 21 27 19 18 21 24 22 21 27 27 23 22 23 22 24 26 27 26 24 24 21 19 21 23 23 21 22 21 21 19 19 19 17 16 16 16 17 16 15 14 13 12 12 12 11 9 9 9 11 13 14 14 13 13 14 14 14 15 15 16 17 18 18 19 19 20 21 20 19 17 17 18 19 19 19 19 18 18 17 18 18 20 20 18 19
14 13 15 16 21 15 12 14 10 16 19 22 20 21 19 19 20 21 23 23 27 24 22 21 21 22 22 25 27 25 25 24 20 20 21 24 23 22 22 22 22 22 21 20 19 18 18 15 14 15 13 12 13 13 12 12 10 9 8 8 9 10 11 11 11 13 12 14 15 15 15 15 16 18 18 19 18 20 18 19 19 17 17 17 18 18 20 18 18 18 20 19 21 20 21 21 19
11 13 14 16 15 17 15 12 11 14 20 19 18 21 20 20 19 19 19 20 26 25 22 22 20 21 23 27 27 28 27 23 20 24 24 24 24 24 23 22 23 23 21 21 21 20 18 18 17 16 13 12 13 12 12 11 10 9 7 7 8 8 10 10 11 12 14 14 14 15 15 17 20 19 18 19 19 20 19 19 19 17 19 18 19 20 19 19 18 17 19 19 20 22 21 20 20
12 13 15 19 13 19 16 12 12 13 18 15 15 23 21 19 19 19 18 24 25 19 19 18 20 20 19 23 24 24 23 21 20 21 20 20 23 23 22 23 20 24 21 22 23 21 19 18 18 15 14 14 14 12 11 10 10 9 9 9 10 10 10 11 12 12 12 12 13 14 14 16 16 17 18 19 20 20 19 19 18 18 19 18 18 19 20 19 20 21 20 20 19 21 22 20 20
12 18 16 18 20 12 15 15 13 13 22 18 16 24 18 18 19 22 22 23 22 19 16 15 15 17 18 19 20 20 20 20 20 20 20 21 21 20 21 21 22 21 21 22 20 21 20 19 17 16 15 15 14 13 12 12 10 10 10 10 12 11 8 10 13 14 13 13 14 14 13 13 14 15 16 19 19 18 21 21 21 19 19 18 17 20 19 23 21 22 22 22 19 21 22 20 20
19 18 20 23 14 18 15 19 13 11 16 21 17 23 17 17 19 22 19 20 20 15 16 15 14 18 19 19 16 18 20 20 20 19 19 20 20 20 18 18 18 17 17 19 20 20 19 19 17 17 17 16 15 15 13 12 12 12 10 9 8 9 10 12 13 13 12 11 13 12 12 12 14 17 18 17 15 16 17 19 18 18 20 19 18 20 19 22 23 20 22 22 21 21 22 21 20
18 19 22 25 16 12 17 15 13 15 15 18 20 20 17 18 19 17 17 14 15 13 14 16 15 14 14 13 16 16 18 17 19 19 18 19 19 18 18 17 16 18 18 18 16 16 16 15 15 15 15 15 14 15 15 13 13 13 12 12 11 10 9 12 13 13 14 14 14 13 15 14 13 16 16 16 17 18 18 18 18 18 18 18 18 19 19 21 21 20 23 22 21 23 22 22 21
23 17 18 17 11 16 11 12 14 20 19 22 21 22 24 21 21 20 19 19 18 16 16 15 14 13 14 16 15 14 16 15 17 18 18 17 18 18 18 18 17 17 16 15 15 16 15 15 14 13 13 13 13 13 13 13 14 14 15 14 14 13 13 13 15 16 17 18 18 15 14 14 15 15 16 18 20 18 20 20 18 19 19 20 19 19 21 21 21 22 22 22 22 21 23 20 23
21 14 12 10 13 14 12 14 15 20 21 21 25 21 23 21 24 24 22 21 19 19 19 17 19 20 20 18 19 18 17 17 15 17 18 18 17 18 17 16 16 15 14 13 14 15 15 14 14 12 12 12 12 12 11 11 12 12 12 12 11 13 12 12 12 11 11 13 13 14 15 13 14 15 15 17 19 20 19 20 20 20 20 20 20 20 22 22 23 22 22 21 22 21 22 24 22
18 15 10 8 13 16 16 16 19 25 19 14 23 24 25 24 24 22 23 21 21 22 23 22 23 21 21 19 18 16 19 19 20 17 17 15 15 15 16 15 15 15 13 13 13 13 13 12 11 12 12 12 11 11 12 11 11 10 10 10 11 11 11 10 11 11 11 12 12 12 13 13 14 16 15 16 16 18 18 18 19 19 20 19 19 21 21 21 22 21 21 23 22 22 21 25 23
15 11 12 14 14 16 18 20 23 23 19 26 24 21 27 25 19 21 21 22 23 25 25 26 25 24 22 20 20 18 18 17 18 19 17 15 14 14 13 14 15 13 12 12 12 12 12 11 12 11 12 12 12 11 12 12 11 11 10 10 10 10 8 8 8 9 11 11 11 11 12 13 14 14 16 17 18 18 17 17 17 18 18 20 19 21 21 22 22 21 20 21 21 21 23 24 25
13 11 11 14 16 18 19 23 23 22 21 25 21 25 23 20 24 21 20 21 25 28 27 27 27 27 25 23 21 20 19 17 17 18 16 14 13 12 11 12 12 13 12 12 12 11 11 11 12 12 12 12 12 12 12 11 10 9 10 9 9 8 8 7 7 8 8 10 10 12 12 14 14 14 14 16 18 19 19 19 19 18 18 19 20 21 21 21 21 22 22 22 22 22 23 24 25
12 12 19 22 21 22 20 21 21 23 21 27 14 21 19 25 24 28 28 27 27 25 26 26 27 27 25 23 23 23 22 20 19 18 16 14 12 12 11 11 12 11 11 11 11 11 11 10 11 11 11 12 11 11 10 10 9 8 9 8 8 9 10 10 12 10 8 8 9 10 12 13 13 14 15 15 15 17 18 19 19 19 19 20 20 20 22 21 21 22 23 22 22 23 23 22 23
13 21 19 20 23 20 20 21 16 19 25 17 13 13 15 21 15 23 27 14 20 30 31 32 31 30 29 25 25 24 23 22 21 21 18 15 13 12 12 12 12 12 11 11 10 10 9 9 9 11 11 10 10 10 10 10 9 9 8 7 7 7 8 9 10 11 11 11 10 11 10 11 12 14 13 14 15 16 17 17 17 19 20 19 19 20 20 20 22 21 22 23 23 22 22 22 22
19 19 19 19 21 22 20 17 16 19 18 17 14 13 16 26 22 13 24 22 16 24 29 35 33 31 28 26 25 25 24 23 23 21 19 17 16 15 13 13 11 10 10 9 9 8 8 8 8 8 9 9 10 10 9 8 7 7 6 6 7 7 8 9 10 10 10 11 12 12 12 13 12 12 13 15 14 16 17 17 17 18 19 19 19 20 20 21 21 21 23 23 24 24 24 23 24
17 17 15 19 21 17 16 21 22 21 14 14 12 11 23 21 15 11 13 16 17 19 22 28 31 31 30 29 27 26 25 24 23 21 20 19 17 17 14 13 11 10 10 9 8 8 9 9 10 10 8 8 8 9 9 9 9 9 8 8 8 9 10 10 12 12 11 12 13 13 14 14 15 14 14 14 15 17 17 17 18 19 19 20 21 21 21 21 21 23 22 23 24 26 25 25 25
15 11 19 18 21 26 19 22 21 17 18 12 15 17 18 18 17 13 14 11 12 18 22 24 27 28 27 28 28 27 25 24 23 21 21 19 16 14 13 13 12 12 12 12 10 11 10 12 11 11 10 9 9 10 9 10 11 10 10 10 10 10 12 12 13 14 14 14 14 15 16 16 16 17 17 15 16 16 17 17 17 18 19 19 20 21 22 22 21 21 23 23 25 25 26 27 25
12 11 11 18 17 12 25 22 21 25 26 26 18 19 13 14 19 15 12 13 12 16 21 24 27 27 27 28 29 28 26 26 23 21 19 17 15 15 15 14 15 15 15 14 14 12 12 13 12 13 13 12 12 11 12 11 12 12 11 12 13 13 14 14 16 15 15 15 16 17 17 17 18 18 18 18 17 17 17 17 18 18 19 19 20 21 22 22 21 22 23 23 24 25 26 26 27
14 16 19 13 15 17 21 18 11 9 17 34 23 28 26 21 17 15 14 13 15 17 21 25 27 28 27 28 29 27 27 26 23 22 20 18 17 16 17 17 17 17 16 17 16 15 14 14 14 15 15 15 15 16 16 15 15 14 15 15 16 16 17 17 18 18 18 18 18 18 19 19 19 20 20 18 19 18 19 18 18 18 18 19 20 21 21 21 22 22 24 24 24 23 26 27 29
18 22 13 13 10 15 17 23 12 14 26 27 16 21 22 22 23 16 17 16 18 20 22 24 25 27 29 29 28 28 26 24 22 20 18 18 18 18 19 19 19 19 18 18 18 16 14 14 15 16 17 18 18 18 19 19 19 19 19 19 19 19 19 19 19 20 20 21 20 21 20 21 20 20 20 19 19 19 19 19 20 20 20 19 20 21 21 22 22 23 23 25 25 24 24 25 26
20 17 14 20 15 17 18 13 17 20 25 26 22 21 25 23 21 21 20 20 22 23 22 24 27 30 31 28 27 25 24 24 23 22 21 18 17 19 19 20 20 19 18 18 18 16 15 14 15 17 19 20 21 21 20 21 21 21 21 22 22 23 23 23 22 22 21 22 23 24 24 25 24 23 24 21 20 21 20 20 20 20 20 21 21 21 21 22 22 23 23 24 24 24 26 26 26
11 11 19 12 19 24 27 22 22 27 27 24 30 23 29 17 20 24 25 26 25 22 23 27 32 33 31 29 29 28 27 25 24 22 20 19 19 20 21 20 21 20 20 19 18 17 17 19 19 20 22 22 22 23 23 23 23 24 24 25 24 27 28 28 27 25 25 25 26 26 26 24 25 26 25 26 26 25 23 23 22 22 21 21 22 22 22 22 22 23 23 25 24 24 26 27 27
19 20 23 17 21 14 19 25 26 26 27 26 28 30 24 17 13 17 22 24 25 26 30 28 29 30 30 28 28 27 27 25 22 21 20 19 18 17 17 16 19 19 17 18 18 18 18 18 18 19 19 20 21 22 23 25 25 26 26 27 28 27 28 30 30 30 29 29 29 29 29 28 27 27 27 28 29 30 30 28 26 25 24 23 22 22 22 22 22 23 25 24 25 26 27 27 26
20 20 21 19 19 19 21 27 23 31 32 30 26 36 26 17 12 11 13 18 21 24 26 25 22 25 27 28 25 25 25 23 21 19 17 16 14 14 16 18 18 19 20 20 20 17 15 16 17 16 17 19 21 23 23 26 26 27 27 27 28 28 30 31 30 31 32 33 32 32 30 30 29 30 29 31 32 31 31 31 30 30 28 27 26 25 23 23 24 23 24 24 24 26 26 28 27
Wind_Speed
7 6 4 6 6 6 6 5 6 4 5 5 4 2 8 1 4 5 2 2 1 8 4 3 1 1 6 9 7 7 5 7 8 6 8 2 4 6 6 5 10 10 9 8 10 12 13 12 12 12 13 14 14 13 13 12 12 13 12 13 13 13 12 12 12 12 13 13 13 13 13 13 12 12 12 11 10 10 9 8 8 9 6 7 5 3 2 2 6 7 10 6 9 9 9 8 10
5 4 5 5 6 6 4 2 6 4 2 7 8 1 5 4 5 3 6 7 6 6 5 2 1 2 1 4 3 6 6 6 9 6 6 6 9 6 6 7 10 11 9 8 7 10 10 12 11 12 13 14 13 13 12 12 12 12 12 12 12 12 12 12 12 12 12 12 12 12 11 11 11 10 10 11 11 10 10 8 8 8 7 6 4 4 3 5 7 7 7 10 7 9 9 9 11
4 5 6 6 6 6 5 3 4 7 8 8 8 8 1 0 4 5 7 6 6 3 3 5 1 1 3 3 3 10 10 5 5 8 6 10 10 6 6 10 11 11 10 9 10 10 10 11 12 12 14 14 14 14 12 12 11 12 12 12 11 11 11 11 11 11 12 12 11 11 10 10 9 9 8 10 10 10 10 9 8 7 5 4 5 4 7 8 8 6 8 9 8 9 8 10 10
4 4 6 4 5 5 4 4 2 4 11 7 8 5 6 6 8 6 5 6 4 3 1 5 1 6 5 6 7 5 8 8 8 7 6 3 6 9 9 12 12 10 10 8 9 9 10 13 13 13 14 13 15 14 13 13 12 11 11 11 11 10 10 10 11 11 11 11 11 10 9 9 8 7 7 8 9 8 8 8 7 6 7 8 7 7 8 8 8 9 8 9 9 9 9 10 10
6 4 4 6 6 3 4 2 2 3 9 6 7 6 6 5 6 5 5 4 2 2 2 4 2 6 6 5 3 6 7 11 9 8 8 8 10 10 11 12 11 10 10 10 10 10 12 17 12 14 14 14 14 14 14 13 13 11 11 11 11 10 10 10 11 11 10 10 10 9 8 8 7 7 6 7 8 8 7 7 6 6 9 8 9 9 9 9 8 10 10 10 10 11 12 11 10
5 5 4 6 4 4 6 4 5 10 9 6 5 7 6 7 4 5 3 3 4 1 3 1 7 5 5 7 4 6 8 6 4 8 8 9 12 12 12 9 9 9 10 9 9 10 13 17 14 13 13 15 14 14 14 14 14 13 11 11 10 10 10 10 10 10 9 9 9 8 8 7 7 6 6 6 6 6 6 6 6 8 9 7 9 10 11 10 10 10 11 11 11 11 11 11 10
4 5 6 5 4 4 3 8 8 7 11 7 8 8 8 7 6 4 3 1 4 2 1 2 1 3 5 4 6 7 8 5 3 5 7 13 13 13 11 9 10 11 10 9 8 11 16 15 13 13 14 15 15 15 14 14 14 14 13 12 11 11 10 10 10 10 9 9 8 8 8 7 6 8 7 6 5 5 6 6 5 9 9 8 9 11 11 11 10 10 10 11 11 11 11 10 9
2 7 2 7 3 5 6 8 9 7 10 8 6 8 10 10 7 3 2 5 6 2 6 3 2 5 10 3 6 6 9 10 11 13 17 14 14 12 11 10 10 11 10 9 10 12 17 15 14 14 14 15 16 16 15 16 15 15 15 14 13 12 12 11 10 10 10 9 9 8 8 7 7 7 7 7 6 5 5 6 8 7 9 8 10 11 10 11 11 11 10 11 11 11 10 9 9
5 6 3 6 3 1 7 7 8 5 9 9 9 9 8 8 7 5 4 2 0 1 3 5 4 3 6 7 7 9 9 10 11 14 16 16 14 13 9 11 11 11 11 10 12 13 15 16 14 14 14 16 16 16 16 16 17 17 16 16 15 14 13 12 11 11 10 9 9 9 9 8 7 6 6 6 6 7 8 8 7 9 9 9 10 10 10 10 11 12 11 11 11 11 10 9 9
6 4 2 5 4 5 4 7 7 7 8 8 9 11 11 9 7 4 4 1 3 1 3 1 4 2 4 10 9 8 8 10 14 14 14 15 14 12 12 11 12 13 12 12 12 14 13 17 14 13 13 15 15 15 16 15 16 16 15 15 15 15 14 13 12 11 11 10 9 9 9 8 8 6 6 5 5 6 6 7 7 9 10 9 9 10 11 11 10 9 10 11 10 10 9 9 8
5 4 3 6 2 5 6 5 6 7 8 5 9 11 11 9 7 4 2 3 1 0 3 2 6 4 3 8 7 6 11 12 14 15 14 14 14 13 12 11 10 10 11 11 12 12 13 14 15 12 12 12 13 12 12 14 14 14 14 14 15 14 14 13 13 12 11 10 9 9 8 8 7 6 5 5 5 5 6 6 8 8 9 9 9 9 11 11 10 9 9 10 9 9 7 7 6
6 5 4 4 5 6 6 4 5 5 7 7 9 11 9 10 5 6 6 4 4 3 2 5 5 1 7 6 7 9 10 11 13 14 14 14 13 13 12 9 10 9 9 9 8 9 11 12 11 11 10 9 10 10 10 11 12 12 12 13 13 13 13 13 12 12 11 11 10 9 9 8 7 6 6 5 5 5 5 5 6 7 7 9 9 10 10 11 11 10 9 9 9 8 7 6 5
6 5 4 2 5 4 3 3 7 2 6 8 7 10 9 10 11 9 7 5 1 1 3 6 3 4 8 6 9 13 12 10 12 14 14 12 13 11 11 10 10 11 9 9 9 9 10 10 9 10 10 9 9 10 10 11 11 11 11 11 11 11 12 12 11 12 11 11 10 9 9 8 7 7 6 6 6 5 5 4 5 6 7 7 9 9 10 10 9 9 8 8 8 8 7 6 5
6 5 6 3 2 3 3 4 3 4 7 6 5 9 9 7 10 9 6 5 8 2 6 2 3 1 4 5 9 9 10 11 13 13 12 13 12 12 12 11 12 12 11 11 11 11 10 10 9 10 12 11 11 11 11 10 10 10 10 9 9 10 10 9 9 9 9 9 8 8 8 8 8 8 7 6 6 6 5 4 3 5 6 7 7 9 10 9 9 8 8 8 7 7 7 6 5
5 3 5 4 1 4 5 6 7 4 5 6 7 9 9 4 7 8 8 6 8 5 3 1 1 6 8 5 8 9 12 14 14 15 14 14 14 13 12 11 11 11 11 11 11 11 11 12 12 12 12 11 12 9 10 12 13 12 11 11 11 10 10 10 10 9 9 8 8 7 7 6 7 7 7 7 7 7 6 6 4 3 4 5 7 8 10 10 9 9 8 7 7 7 7 6 6
4 5 4 4 2 6 6 5 4 5 6 6 7 3 9 6 2 7 7 6 4 2 3 4 5 2 7 9 9 14 16 15 15 15 15 15 14 12 12 11 10 10 9 10 10 10 10 10 9 10 10 12 10 10 10 11 13 13 12 11 11 11 10 10 9 9 9 9 8 8 8 7 6 6 6 6 7 7 8 4 8 4 3 5 6 7 7 8 8 9 8 8 8 7 7 7 6
3 5 6 3 2 4 7 6 5 6 8 7 5 7 9 8 6 1 4 3 5 4 4 1 4 4 6 10 15 17 17 15 16 17 16 13 11 10 10 9 9 9 7 9 9 9 9 9 9 8 9 11 9 9 9 10 11 14 13 12 12 11 10 10 10 10 9 9 8 8 7 5 5 4 6 4 7 7 7 4 6 5 4 4 5 6 6 7 8 8 8 7 8 8 7 7 7
4 5 6 5 5 4 8 8 6 8 9 8 8 8 8 7 5 4 4 3 3 0 3 4 3 6 13 14 16 17 17 18 18 17 13 12 10 10 9 9 9 9 9 8 8 9 9 9 9 9 8 10 10 8 7 8 10 12 11 11 10 11 11 10 10 8 8 7 8 7 6 5 4 3 3 3 5 5 7 6 7 5 4 4 4 5 5 6 7 7 7 7 6 7 8 7 8
5 5 5 5 5 7 8 6 8 8 8 10 10 7 6 6 5 4 5 4 2 3 4 4 6 9 15 15 15 16 17 16 15 13 15 14 11 12 10 9 9 9 9 8 8 9 8 7 8 8 9 9 10 8 7 8 11 9 11 11 10 11 10 10 8 7 7 6 7 6 5 4 5 4 3 3 2 2 0 8 6 7 6 6 6 6 6 6 6 7 7 7 7 8 8 7 7
2 6 6 5 9 9 7 5 7 7 10 10 8 6 6 6 4 3 4 1 2 1 5 5 4 8 13 14 14 15 16 16 13 13 14 13 12 11 11 10 9 9 8 7 8 8 8 6 7 7 7 8 8 7 7 7 8 8 8 9 8 8 9 8 8 7 6 5 5 4 4 4 4 3 5 6 5 3 5 5 7 7 8 7 9 7 8 7 7 7 7 7 8 8 8 7 6
3 6 5 8 10 10 7 9 8 8 8 9 8 5 5 5 5 4 5 8 8 5 7 7 3 1 17 15 15 14 15 15 14 13 13 13 12 9 9 8 8 8 8 8 7 8 8 6 6 7 6 7 7 6 7 7 7 7 6 6 7 7 7 7 6 6 6 6 5 4 4 4 4 3 5 4 4 3 2 5 5 5 5 7 9 6 5 6 8 7 7 8 7 7 7 6 5
6 7 7 8 9 10 10 11 10 7 7 7 6 4 5 2 3 5 8 9 6 8 11 8 7 5 15 17 17 16 15 15 15 14 14 14 13 11 9 8 8 7 7 7 7 7 6 5 5 5 6 6 5 5 5 6 6 6 6 5 5 5 6 6 6 6 6 6 5 4 4 4 4 3 3 4 4 3 5 4 5 6 5 3 7 5 5 4 5 5 6 7 6 5 6 5 5
7 4 2 6 8 10 10 11 10 7 5 4 3 5 2 5 10 9 11 10 10 11 11 10 8 4 8 15 16 16 16 15 15 15 14 13 12 11 10 9 9 8 7 6 6 6 7 6 5 5 5 5 5 3 3 4 5 5 5 6 6 5 5 6 5 5 5 5 5 4 4 4 4 3 3 4 4 4 4 4 3 4 4 4 1 4 5 4 4 4 4 4 4 5 5 6 6
7 7 7 7 8 9 11 10 8 6 5 4 3 1 1 2 7 9 11 10 10 10 9 7 5 3 8 15 15 16 16 16 15 14 13 12 12 12 11 10 8 7 7 7 6 5 6 6 5 5 5 5 5 4 4 3 3 4 4 5 6 5 5 5 5 4 4 5 5 5 5 4 4 4 4 4 4 4 4 4 4 4 5 5 2 5 5 3 4 4 4 4 5 6 6 6 6
6 5 7 9 7 5 8 7 6 7 6 5 4 7 9 5 7 9 13 12 11 9 7 6 4 2 6 10 13 14 15 15 15 13 10 8 9 9 8 7 7 6 8 7 7 6 4 3 5 5 4 3 3 4 4 3 2 3 3 4 4 4 4 4 4 4 5 5 6 6 6 4 4 4 4 4 3 4 4 4 4 4 5 5 5 5 4 2 5 4 4 5 5 5 6 5 6
2 8 11 9 6 5 6 5 7 6 5 3 10 12 10 7 7 14 12 12 10 7 6 6 6 7 7 10 11 12 13 14 14 13 11 9 9 9 8 8 7 7 8 7 6 5 5 7 7 7 6 5 4 3 3 3 2 3 3 3 3 4 4 3 4 4 4 5 5 6 6 5 4 4 4 4 4 4 4 4 5 5 5 5 5 6 6 6 6 5 5 6 6 6 6 6 6
8 10 11 10 5 2 4 5 6 7 7 5 12 14 10 10 3 5 11 10 9 6 7 7 7 10 9 8 9 10 12 13 12 10 10 8 9 8 9 8 8 8 8 8 6 5 5 5 6 6 6 6 5 4 3 3 2 2 2 2 3 4 4 4 4 4 4 4 4 5 5 5 4 4 4 3 4 4 4 4 5 5 5 6 6 7 6 6 6 6 6 6 6 6 6 6 7
10 9 11 9 3 3 3 4 6 5 5 2 11 16 14 8 11 10 10 8 7 7 8 8 7 9 10 10 9 9 9 10 9 8 10 10 8 9 9 8 9 9 8 7 6 5 5 5 5 5 5 6 5 5 4 3 3 2 2 3 4 3 3 4 4 4 4 4 4 4 4 4 5 4 5 4 5 5 5 5 4 5 5 6 6 7 7 7 7 8 8 7 7 7 6 6 6
9 8 9 3 4 5 7 7 6 5 5 4 6 4 13 14 10 11 9 5 6 6 7 6 6 8 10 10 9 8 8 8 7 7 8 6 7 8 9 8 9 8 7 7 7 6 5 4 4 4 4 6 5 4 3 2 2 2 3 3 2 2 3 4 4 4 4 4 4 4 4 5 5 5 6 6 6 6 5 5 5 5 5 6 6 7 8 7 7 7 7 7 7 8 7 7 7
7 7 6 8 7 5 8 7 10 5 5 5 4 6 7 10 10 9 9 6 4 5 6 5 4 5 7 9 9 8 8 7 7 7 8 8 9 9 9 9 8 7 7 6 7 7 5 4 3 3 4 6 6 4 3 2 1 3 3 2 3 4 3 4 4 4 4 4 4 4 4 5 5 5 6 7 7 7 7 6 6 6 6 6 6 6 7 7 7 8 8 8 7 3 8 8 7
7 0 6 4 7 5 9 9 12 4 6 10 3 6 6 8 9 8 7 5 5 5 6 5 3 5 6 8 10 10 7 6 8 8 9 8 8 8 9 9 9 8 7 7 8 8 6 4 3 4 3 6 6 5 5 3 1 2 2 2 3 2 3 4 4 4 4 3 3 4 5 5 6 6 7 6 6 7 7 7 7 6 6 6 5 6 7 6 7 7 7 8 8 8 10 8 8
4 6 8 5 8 6 5 7 11 10 7 12 12 2 6 7 8 7 6 5 3 5 6 5 4 4 5 7 7 8 8 8 8 9 8 9 9 8 9 10 9 9 9 8 8 8 7 6 5 5 5 5 5 4 5 5 3 1 0 1 2 3 3 3 4 4 4 4 4 4 4 5 6 6 6 6 6 7 7 7 6 5 6 5 5 4 7 8 7 7 7 8 8 9 8 9 8
6 9 3 3 4 2 5 7 7 11 7 9 12 4 6 5 5 4 4 2 3 3 4 4 4 5 5 6 6 7 9 9 8 8 8 8 7 7 8 9 9 9 9 9 9 9 8 7 6 6 6 5 5 6 5 5 4 3 1 1 2 2 2 3 4 4 4 4 4 5 5 5 5 5 6 7 6 6 7 8 6 5 6 5 1 5 5 8 8 7 6 7 8 8 9 8 8
7 4 7 2 8 4 3 7 8 7 10 7 7 4 7 6 2 3 3 3 1 2 3 4 5 5 6 6 7 8 9 9 9 8 8 8 8 9 9 10 10 10 10 9 8 8 7 7 6 6 6 5 4 5 5 5 5 4 3 1 1 2 2 2 3 3 3 3 4 5 6 5 5 6 7 6 5 6 7 7 6 6 6 6 5 3 3 6 7 6 6 7 8 8 8 8 8
3 2 5 5 5 5 7 5 7 5 5 4 6 8 7 5 4 3 3 2 1 1 2 4 6 5 6 6 6 8 8 8 8 8 9 10 10 10 9 10 10 10 9 9 8 7 7 7 7 7 6 6 6 5 6 6 5 4 3 2 1 1 2 3 3 3 4 4 5 6 7 6 6 7 7 7 7 7 6 7 7 7 6 6 6 5 5 6 6 7 6 6 5 7 10 8 7
6 5 6 6 8 5 1 5 2 5 3 2 3 2 4 4 4 2 2 1 0 1 3 3 5 5 5 5 5 6 7 8 7 8 9 8 8 8 8 9 9 9 8 8 8 7 7 7 6 6 6 5 5 5 4 4 4 3 3 2 2 1 2 2 3 3 4 5 5 6 6 5 6 6 6 6 6 7 7 7 7 7 7 7 6 6 6 6 8 8 9 9 9 9 9 8 8
4 5 6 7 6 7 6 4 3 1 2 3 3 4 4 3 2 2 2 1 2 2 2 2 3 5 4 6 6 7 7 7 7 9 9 10 10 9 9 9 10 10 9 9 8 7 6 6 7 7 6 5 4 4 4 3 3 3 2 1 2 0 1 2 3 3 4 4 4 5 5 4 5 5 6 6 6 7 8 7 7 8 7 6 6 7 6 8 8 6 9 7 9 9 10 8 9
5 5 7 7 5 6 6 4 5 3 8 3 3 4 4 3 2 3 2 4 2 1 2 2 3 5 5 7 7 7 7 8 9 9 10 10 10 10 10 9 10 11 10 9 9 9 8 8 8 7 6 5 5 4 3 3 3 3 1 1 3 3 3 3 3 3 4 5 6 6 6 6 6 7 6 6 6 9 8 7 8 9 8 7 6 6 4 7 9 10 8 8 9 9 9 9 8
4 7 6 6 8 1 5 6 5 4 6 2 6 4 4 4 4 3 4 4 3 1 0 0 3 6 5 7 8 8 9 9 9 10 10 10 11 10 10 10 10 11 11 10 9 9 8 8 8 7 6 5 5 5 4 4 4 3 3 3 3 2 2 3 3 3 4 5 5 5 6 6 7 7 6 7 7 8 7 8 8 8 9 7 6 7 7 8 7 10 12 10 8 9 9 7 10
8 7 8 9 5 6 2 8 5 3 5 3 7 5 4 6 5 4 4 5 4 4 3 3 4 4 7 8 8 9 9 10 10 10 11 10 11 10 9 9 9 8 7 7 7 7 6 6 7 7 6 5 4 5 5 5 5 4 3 2 2 2 2 3 3 2 3 4 4 5 5 5 6 6 6 7 7 7 8 8 7 8 9 9 7 7 8 10 8 7 10 11 10 10 9 9 9
8 9 10 10 7 2 7 4 2 3 5 5 6 7 5 7 8 6 7 5 6 6 6 5 3 4 4 4 6 8 9 9 9 10 10 10 10 9 9 9 7 7 6 6 5 5 5 7 7 7 6 5 4 4 4 3 3 2 1 1 1 1 1 1 2 2 3 3 4 4 5 6 7 7 7 8 8 8 8 7 7 7 7 7 6 7 8 10 10 9 11 12 10 10 10 8 8
9 9 9 9 4 8 3 3 6 7 6 9 8 7 8 9 11 9 8 8 9 8 8 8 6 7 6 7 7 7 7 7 8 9 10 9 9 10 10 10 9 8 7 6 6 6 6 7 7 6 5 5 5 5 5 4 4 4 3 3 3 3 3 3 4 4 5 5 5 5 6 5 7 7 7 9 9 9 9 8 8 8 8 8 7 7 8 9 10 11 11 10 11 11 10 8 8
9 4 1 1 6 6 5 6 5 7 8 6 10 8 6 8 12 12 11 11 10 10 10 10 10 10 10 8 9 8 8 8 7 8 9 9 9 9 9 8 8 8 7 6 6 7 7 7 7 5 5 4 4 5 5 4 5 4 4 4 4 3 2 3 3 3 4 5 5 6 6 5 6 7 7 7 7 8 9 9 8 8 8 8 8 8 8 10 10 10 9 10 10 9 10 10 10
5 7 2 0 6 8 8 8 8 9 9 6 12 9 9 8 9 12 12 11 11 12 13 12 12 12 11 9 9 8 9 9 9 9 9 8 8 8 8 8 7 7 6 5 5 5 7 6 5 5 5 4 3 4 5 5 4 4 4 4 3 3 3 3 3 2 2 3 4 5 5 5 7 7 7 7 7 8 8 9 9 8 8 8 8 9 9 9 9 9 9 9 9 7 8 10 10
4 3 5 6 6 8 9 9 9 10 8 10 10 10 9 9 7 11 11 11 13 14 14 15 14 14 12 11 9 9 9 9 9 9 8 7 7 7 6 7 7 7 5 5 5 5 5 5 5 5 5 4 4 5 6 6 5 4 4 3 3 3 2 2 1 2 2 3 3 4 4 5 5 6 7 8 9 9 8 8 8 8 8 8 7 8 9 9 10 10 9 8 8 8 7 10 10
5 4 4 6 8 9 10 9 9 9 8 11 9 11 7 7 10 8 9 9 12 14 15 15 15 16 14 12 11 11 9 8 8 9 8 7 6 6 5 6 6 5 5 5 5 4 4 4 5 5 5 4 4 5 5 5 4 3 3 3 3 2 1 1 1 1 1 2 3 3 3 4 4 5 6 8 9 9 10 9 9 9 8 8 8 9 9 10 10 10 10 11 10 10 9 10 10
5 5 9 10 9 9 8 8 8 9 8 12 5 11 7 8 8 9 9 9 11 10 11 12 15 15 15 13 13 12 11 10 9 9 8 7 5 5 5 5 5 5 4 4 4 4 4 4 4 5 5 4 5 5 4 4 3 2 2 2 2 2 1 1 2 1 2 2 3 3 3 3 3 4 5 5 7 8 9 10 10 10 9 9 9 10 10 10 9 9 9 10 11 11 10 10 9
5 7 7 8 10 8 8 8 6 6 9 6 5 5 7 8 3 8 9 5 7 11 15 17 18 18 16 14 13 13 12 11 10 10 9 8 6 5 5 6 6 5 5 5 4 4 3 3 3 5 5 4 4 3 3 2 2 1 1 1 1 1 2 2 3 3 3 4 4 4 3 4 3 4 4 4 5 7 8 8 9 10 9 9 9 9 9 9 9 9 9 9 10 10 11 10 10
7 8 7 7 6 6 5 5 5 6 5 6 5 5 6 10 9 0 10 8 6 9 11 16 18 18 17 15 15 13 12 12 12 10 10 8 8 7 7 7 5 5 4 4 3 3 2 2 2 2 3 3 3 3 2 2 1 1 0 1 1 1 2 3 4 4 4 4 4 5 5 5 5 5 4 5 4 5 6 7 8 8 8 9 9 10 10 11 11 10 10 11 11 12 10 11 10
7 6 5 7 7 5 6 7 7 7 2 5 2 2 9 9 3 4 5 7 6 7 9 13 17 18 18 17 15 14 13 13 12 11 10 9 8 8 7 6 5 4 3 2 2 1 0 0 1 1 0 1 1 1 2 1 1 1 1 2 2 3 4 4 5 5 5 5 5 6 6 6 6 6 6 6 5 6 6 6 7 9 10 10 11 11 11 11 11 11 11 11 12 11 11 13 12
5 3 7 7 7 7 6 7 7 6 6 1 7 5 4 7 5 4 6 4 1 5 8 11 14 16 16 16 15 15 14 14 12 10 10 10 8 7 6 5 4 4 3 3 2 2 2 2 3 4 4 3 2 3 3 4 3 3 3 3 3 4 4 5 5 5 6 6 6 7 7 7 7 7 7 7 7 7 8 7 8 8 9 10 10 11 10 11 11 11 10 11 11 11 13 12 10
3 3 2 7 6 2 9 8 8 10 10 10 6 5 3 2 8 6 4 5 5 6 8 11 14 14 15 15 16 15 14 13 12 11 10 9 8 7 6 5 4 4 4 4 5 4 4 5 5 6 6 6 6 6 6 5 6 5 5 6 7 7 6 6 7 7 7 7 7 8 8 8 8 8 8 8 8 8 8 9 9 9 9 10 10 11 11 11 11 11 11 11 11 9 11 12 9
4 4 7 2 5 5 7 8 2 4 6 11 6 10 9 8 6 7 6 5 7 8 10 12 14 16 16 15 15 15 14 13 12 11 10 9 8 7 7 7 6 6 5 6 7 6 7 7 7 8 9 8 9 9 9 8 8 8 8 8 8 9 9 9 8 10 10 9 9 9 9 9 10 9 9 9 9 9 9 9 9 9 9 10 10 11 11 11 11 11 11 13 13 11 12 11 10
5 8 1 4 1 6 4 7 2 4 10 7 5 9 9 9 3 6 9 8 9 10 11 13 14 15 17 16 15 15 15 14 13 11 10 9 9 9 8 7 8 8 8 8 9 8 7 7 8 9 9 10 10 10 11 10 11 11 11 11 11 11 10 10 10 11 10 10 10 10 10 10 10 10 9 8 9 10 10 10 10 10 10 10 11 11 11 12 12 11 12 12 13 13 12 11 10
8 6 5 7 2 7 6 2 5 7 9 7 9 11 11 9 6 9 11 10 11 11 11 12 15 16 17 16 16 15 14 13 12 12 11 9 8 9 9 9 9 9 9 9 9 8 8 7 8 9 11 12 12 11 11 11 11 10 10 12 13 13 13 12 12 12 11 11 12 12 13 13 12 12 11 11 10 10 10 10 10 10 10 11 11 11 11 11 12 11 12 12 12 12 13 13 11
4 4 7 4 6 9 10 6 8 8 11 9 13 11 10 5 7 3 2 7 9 11 12 14 16 19 17 16 15 15 15 13 12 11 10 9 9 10 10 10 11 11 11 11 11 9 10 10 10 11 12 13 13 14 13 13 13 12 13 14 14 15 15 15 15 14 13 14 14 14 14 14 14 13 13 14 14 13 12 12 11 11 11 11 11 11 11 11 11 11 11 11 12 13 14 14 13
7 7 8 5 7 3 6 9 9 9 8 9 10 10 8 6 2 4 3 3 5 10 12 12 14 15 16 16 15 15 15 13 12 11 10 10 9 9 9 9 9 10 9 9 9 10 10 10 10 11 11 11 12 12 12 13 13 14 15 16 16 16 17 16 18 18 17 16 16 16 16 15 14 14 14 15 15 16 16 15 15 13 13 12 12 11 11 11 11 12 12 13 13 14 15 13 13
8 7 8 7 7 7 8 10 9 11 10 9 8 13 9 1 3 3 0 3 2 5 7 8 10 13 15 15 15 14 14 14 12 11 9 8 7 7 8 8 9 9 10 11 10 9 8 8 8 8 8 8 9 10 10 12 12 13 15 16 17 16 17 17 18 18 18 18 18 17 17 17 17 16 16 17 18 16 16 17 17 16 15 14 14 13 12 11 12 12 13 11 12 14 14 15 14
Wind_Direction
251 231 281 265 271 267 280 208 242 149 231 53 81 56 58 297 340 320 338 125 335 73 7 345 311 87 336 24 4 8 19 325 31 330 56 70 63 122 76 116 120 127 128 127 132 144 144 131 128 130 124 120 116 114 114 116 117 119 121 119 118 119 118 117 118 120 121 122 124 124 127 128 131 134 138 138 140 144 140 147 144 141 169 150 149 135 109 95 76 105 112 133 119 115 128 136 124
243 260 238 247 256 278 213 331 272 180 51 101 87 73 80 80 263 347 32 24 35 37 17 355 109 54 310 341 337 273 93 34 40 71 67 83 113 110 78 119 130 125 118 111 125 138 135 132 123 128 126 124 121 117 117 119 122 122 120 120 121 122 122 122 123 123 122 122 122 123 124 127 131 134 134 132 135 138 141 145 140 146 143 140 136 121 92 72 104 89 82 108 118 137 136 133 120
256 258 237 225 245 254 310 228 285 54 106 90 71 64 149 46 30 33 30 30 20 34 23 47 342 266 181 194 88 360 79 76 102 78 88 123 125 117 121 132 129 123 122 129 140 142 139 133 126 130 135 131 129 126 124 125 125 124 121 123 125 123 123 123 122 121 121 120 119 122 125 128 130 131 131 131 131 135 146 149 133 113 115 100 91 88 91 109 106 107 109 122 128 120 137 126 117
267 264 282 278 264 217 260 232 313 23 73 47 80 56 52 28 48 24 29 28 2 326 353 131 187 72 306 60 52 220 58 77 47 76 115 148 84 127 132 135 131 126 125 129 135 135 133 132 131 134 132 138 136 134 134 131 128 129 128 126 126 125 122 120 117 117 117 117 118 120 123 123 124 121 121 107 119 125 112 103 109 111 86 79 92 103 110 111 122 121 128 131 139 135 144 126 123
251 228 254 266 286 224 272 18 357 359 63 30 57 86 49 47 25 3 17 6 341 322 280 74 150 92 34 18 8 34 68 95 76 54 84 86 110 120 132 134 131 129 129 134 136 128 132 125 130 132 136 141 137 137 139 136 134 131 129 126 126 123 119 115 114 114 114 115 117 120 119 117 114 115 111 108 103 101 99 96 97 97 84 80 100 109 113 113 120 127 136 137 142 144 137 126 123
243 253 215 255 274 18 240 199 70 64 43 358 43 30 26 50 12 4 337 13 32 275 31 114 24 60 104 54 18 59 7 59 88 77 85 103 114 120 128 135 125 124 127 130 129 132 139 126 132 135 140 137 140 140 141 139 138 133 130 127 124 121 117 116 115 114 113 116 117 117 116 116 113 117 119 106 95 92 87 84 81 86 84 105 107 112 117 116 120 126 130 141 139 135 130 128 126
275 270 208 226 222 229 355 57 63 40 54 4 26 359 3 355 13 330 351 238 106 105 274 64 75 173 134 84 129 62 68 37 110 68 98 117 114 123 134 133 128 126 128 129 133 130 130 125 133 135 141 143 143 145 145 144 143 141 138 135 131 128 124 122 121 118 118 118 117 116 116 115 105 84 85 95 96 91 89 87 91 88 100 112 113 118 121 122 124 128 134 139 132 129 131 133 132
245 286 11 273 125 231 66 65 59 22 60 24 27 2 2 346 334 304 351 305 95 236 149 109 106 26 70 283 78 88 78 51 78 99 112 118 118 127 130 131 130 129 129 133 126 127 127 132 138 142 144 148 147 149 150 150 147 145 142 141 139 135 132 129 126 125 125 124 123 122 122 117 110 103 90 91 92 95 106 92 79 98 115 115 120 122 120 127 129 132 138 129 127 127 130 130 131
241 269 228 263 210 179 88 56 88 50 57 34 42 43 14 1 340 319 295 76 334 272 183 155 96 244 68 118 77 117 76 87 97 107 115 121 124 131 135 136 134 133 135 134 131 138 140 138 141 145 149 150 152 155 154 153 150 150 148 144 144 142 140 138 135 132 130 130 130 128 127 123 118 111 105 103 97 81 74 81 83 108 120 119 125 121 115 126 130 129 130 127 128 128 131 135 133
258 274 296 296 317 64 47 60 52 44 48 37 39 25 11 13 7 323 315 89 74 318 79 108 146 31 128 83 113 107 103 103 108 109 118 125 129 131 132 132 136 138 140 141 143 144 145 144 143 146 151 151 155 156 156 154 150 150 147 146 146 146 145 142 140 138 135 134 134 133 132 128 126 122 122 123 120 100 93 92 95 111 121 124 127 118 112 117 112 116 126 127 130 130 135 135 134
286 212 256 266 18 62 46 66 51 77 58 31 54 28 14 5 4 346 1 339 50 335 120 178 178 193 147 108 69 81 108 121 121 122 132 130 129 127 125 129 129 136 139 142 142 140 142 148 141 143 147 146 150 152 152 151 150 149 147 147 146 147 147 144 143 140 139 137 137 136 134 133 129 126 126 132 133 123 109 103 96 110 118 126 125 116 117 119 119 118 128 135 129 130 136 131 136
293 350 276 319 37 360 41 31 62 66 93 37 52 21 11 348 336 355 43 11 88 186 176 187 70 145 126 122 111 112 119 119 120 129 133 130 124 122 121 123 122 120 124 126 126 133 138 136 148 140 133 136 138 144 146 145 147 143 143 144 147 148 147 146 145 143 141 142 143 141 140 137 133 132 128 134 143 141 126 114 103 108 121 121 129 132 126 126 134 134 132 134 137 137 139 134 134
311 321 325 286 28 350 21 289 66 283 86 64 22 14 356 352 9 6 11 5 31 335 155 192 67 274 97 97 99 118 108 116 126 131 133 123 119 118 114 110 119 123 123 130 130 123 130 138 137 152 134 128 134 140 140 137 135 135 139 144 145 147 147 148 148 147 147 147 147 149 147 145 142 139 145 138 147 146 152 124 121 117 104 118 127 134 138 139 138 139 140 141 146 147 148 138 140
299 350 309 359 208 328 359 356 46 345 82 52 49 358 359 344 3 353 344 359 62 31 50 36 223 359 104 125 129 126 116 129 129 126 118 114 114 114 118 122 128 134 137 140 135 139 143 142 147 146 150 163 152 150 145 139 137 137 141 143 144 145 145 146 146 146 147 145 148 149 155 155 152 152 153 156 145 152 148 148 130 126 124 118 126 133 138 139 144 144 155 152 158 153 150 153 149
294 329 289 303 251 282 79 337 11 333 87 20 56 349 341 29 353 349 11 351 66 20 75 248 322 231 103 199 108 131 135 137 125 117 114 117 122 125 127 126 127 132 139 141 143 148 150 152 155 155 161 162 156 159 158 152 150 148 148 151 151 151 152 151 153 153 153 154 154 160 162 163 159 161 160 163 162 149 151 156 152 139 132 135 132 139 142 147 152 157 157 157 162 165 161 159 156
307 284 291 304 354 328 79 314 18 261 55 354 53 339 332 360 54 340 23 325 9 116 272 135 206 3 85 62 111 116 119 121 117 117 122 126 129 127 124 124 126 135 144 147 150 154 156 157 160 160 160 159 161 157 155 152 151 150 152 154 154 153 155 156 157 161 163 165 168 166 170 175 174 170 174 172 173 167 166 197 141 147 172 153 147 146 149 146 149 153 163 167 169 172 165 163 159
267 272 279 276 323 346 50 323 335 9 339 314 10 349 333 335 68 350 327 283 282 99 206 153 174 170 64 87 99 108 114 120 128 132 134 135 136 133 136 139 141 141 150 157 154 156 159 161 163 160 162 153 157 154 151 151 152 155 154 159 158 158 158 162 165 169 175 178 179 176 174 203 182 172 174 192 169 191 162 159 158 158 180 184 161 166 167 160 158 155 164 167 174 170 174 164 171
253 265 327 309 28 328 16 326 328 338 298 322 332 345 324 316 2 53 266 211 262 149 230 153 163 95 79 93 106 119 132 142 145 146 147 144 147 145 151 154 157 154 156 157 159 156 163 167 171 167 161 159 153 154 158 158 155 170 160 162 167 164 168 174 176 182 182 176 191 174 192 183 194 182 187 182 196 171 175 180 171 176 194 195 193 180 181 180 176 171 169 178 176 194 183 201 182
273 311 283 328 13 6 321 330 307 306 312 319 315 316 321 325 341 31 302 140 224 174 164 184 175 129 100 105 120 135 143 145 154 154 152 153 155 154 156 158 160 154 156 157 156 164 168 172 176 173 165 162 154 158 161 162 166 172 168 173 164 174 168 181 180 187 186 190 179 187 184 176 194 170 193 178 338 70 221 172 188 193 197 205 203 202 196 187 187 185 180 183 199 203 216 220 205
231 306 313 360 360 332 328 339 316 317 312 299 309 315 305 332 331 357 278 344 174 102 110 159 182 164 128 122 133 142 149 152 157 162 157 152 153 157 155 157 153 157 154 155 153 170 174 175 174 169 163 163 160 165 169 169 172 178 176 177 168 170 172 180 180 185 192 194 184 183 189 173 184 184 152 170 196 201 185 192 198 209 206 207 211 211 191 197 194 193 196 199 206 215 221 222 221
83 275 313 346 335 326 337 329 332 317 312 300 297 315 291 46 17 333 333 262 120 64 31 352 349 137 137 141 144 153 154 155 160 161 155 152 153 156 153 153 156 153 153 149 158 171 175 168 174 164 165 163 168 167 176 176 175 183 182 178 177 174 172 176 180 182 184 189 197 190 187 175 197 197 170 175 219 181 277 189 206 222 199 215 195 234 217 171 200 196 191 207 227 220 221 225 234
298 273 308 316 324 311 330 337 330 331 304 284 297 290 39 35 106 35 9 355 22 349 325 312 289 309 142 148 154 155 156 157 157 157 158 155 155 152 151 153 143 148 147 160 158 157 167 184 180 158 171 169 171 170 189 169 176 187 179 179 186 183 177 177 181 185 179 183 200 197 185 185 205 205 187 193 190 208 212 235 204 214 201 202 198 232 215 217 206 213 202 204 220 225 227 229 226
291 274 278 307 321 307 320 326 341 324 325 309 308 45 39 89 80 39 22 12 345 336 323 295 279 273 151 149 153 157 156 155 156 159 157 156 155 154 158 156 156 154 154 145 155 142 163 183 181 174 176 170 178 181 191 171 188 188 180 180 192 186 181 182 187 186 181 181 193 194 198 206 195 211 200 198 216 202 217 227 231 272 290 254 157 264 248 222 236 226 225 221 226 235 229 224 221
264 298 311 322 333 313 319 339 356 6 357 16 47 204 118 164 85 30 33 16 352 344 340 323 299 229 162 154 159 154 154 153 158 154 157 159 160 162 159 156 148 137 139 135 138 143 158 182 194 191 183 184 174 176 178 187 186 195 188 187 204 183 190 185 188 188 175 185 188 192 208 215 208 197 210 205 208 212 221 221 229 225 228 248 206 255 244 238 239 241 231 228 225 226 225 224 229
259 266 333 320 316 337 355 359 36 42 65 84 155 100 69 64 88 44 30 6 356 353 353 359 16 134 159 149 151 152 151 152 147 149 153 152 161 158 149 134 133 135 133 135 134 131 141 160 197 199 180 178 179 177 181 174 183 197 200 200 205 193 206 193 189 183 194 186 189 197 203 216 215 214 208 216 212 221 219 226 222 227 239 241 229 237 267 300 259 242 245 239 223 232 231 228 230
248 314 309 307 308 11 11 15 59 62 95 166 112 84 70 87 116 57 20 7 2 1 23 30 67 92 110 128 139 146 146 145 144 149 151 154 159 152 143 131 129 134 129 128 130 133 148 163 188 194 182 176 171 187 184 165 172 198 206 204 197 206 210 200 187 201 204 200 191 202 204 210 218 219 210 215 222 224 227 224 229 232 227 237 240 238 220 222 241 244 240 242 238 222 233 219 225
329 307 304 297 298 341 15 14 76 75 79 117 97 81 68 51 299 54 22 14 2 22 38 52 80 89 93 112 126 134 139 142 145 144 143 154 155 148 139 128 128 121 126 131 127 121 127 161 185 196 176 170 174 182 181 163 173 196 217 225 205 206 208 205 205 211 213 215 214 199 211 216 220 223 230 219 229 233 232 227 228 231 234 229 232 238 237 233 228 240 244 240 242 244 229 226 216
298 311 296 264 216 136 29 44 82 166 87 353 114 95 72 66 51 29 3 17 7 26 43 47 72 95 102 110 118 125 129 132 143 150 150 157 159 146 143 134 126 129 131 124 112 106 123 146 178 185 178 166 177 177 173 188 187 166 219 226 220 208 208 212 210 211 214 218 214 216 218 228 225 232 230 234 236 238 239 237 234 232 238 240 235 236 230 233 237 232 237 238 251 254 249 250 239
303 302 281 213 182 140 41 25 36 109 76 310 281 242 54 39 35 9 7 18 20 33 48 44 60 95 110 114 120 128 126 139 150 151 147 149 129 132 127 125 134 131 96 104 114 116 117 132 154 169 171 158 172 156 179 206 215 221 205 227 218 235 244 227 221 221 218 220 220 226 229 232 241 236 233 233 239 239 240 241 243 241 243 248 248 250 252 236 236 238 238 245 245 244 247 243 249
283 249 282 243 211 159 46 17 3 136 76 318 212 227 64 52 39 11 3 3 11 46 51 50 61 89 105 119 118 119 129 143 151 138 141 131 129 122 119 122 120 122 128 119 119 115 115 126 128 131 161 155 145 152 154 177 228 254 260 267 238 212 218 245 241 238 231 231 227 214 223 233 240 245 249 243 240 238 232 232 241 244 244 253 259 251 248 242 239 239 239 235 229 262 275 248 233
244 116 261 276 256 102 58 19 7 35 65 339 198 251 91 58 43 12 2 11 11 45 60 60 70 91 108 119 118 109 113 136 129 126 129 123 115 114 112 111 114 119 119 119 114 115 120 116 134 127 179 139 153 152 153 149 179 275 267 264 281 261 241 247 254 261 258 252 244 233 231 228 233 239 243 252 261 261 247 236 233 242 245 244 268 256 248 250 246 247 243 241 235 215 231 250 235
228 229 214 179 262 97 73 40 28 3 3 2 316 196 79 55 33 10 355 20 15 51 55 49 66 92 102 113 118 113 94 93 106 115 111 116 115 121 123 118 118 120 121 121 116 116 120 126 136 130 144 134 136 135 136 132 127 113 265 294 288 310 286 275 267 264 269 277 270 258 244 242 239 242 247 252 254 263 265 250 236 239 255 253 232 300 301 267 249 247 249 244 249 246 229 238 237
214 252 272 275 272 358 179 74 38 15 346 30 8 52 153 91 33 17 348 358 25 66 62 72 73 85 108 118 124 121 120 125 120 106 106 114 118 121 121 121 122 120 118 114 116 116 116 119 123 119 113 113 120 126 124 123 130 135 130 190 238 260 269 269 268 266 268 264 266 272 260 251 256 259 261 252 249 256 265 265 257 242 245 253 342 230 233 280 272 256 250 261 260 258 255 250 244
212 198 271 42 294 330 280 104 56 29 4 37 36 73 71 82 62 50 3 342 40 91 90 88 88 76 74 101 118 126 132 127 119 122 124 125 126 122 118 118 116 113 110 113 117 119 118 119 113 114 117 118 113 108 111 121 121 123 128 139 226 241 240 268 274 268 254 260 260 253 259 258 253 252 249 249 248 254 258 267 265 247 246 246 243 239 245 252 274 271 269 264 259 261 262 255 252
310 278 270 225 204 232 307 296 45 354 33 47 81 90 94 82 87 54 33 25 333 36 105 111 111 100 74 87 90 98 110 111 109 117 119 118 118 119 116 114 113 110 111 115 116 118 122 119 119 114 110 107 101 103 112 111 111 107 127 177 183 215 227 223 236 248 251 251 245 248 251 255 251 259 268 268 267 263 256 256 258 254 251 255 245 244 245 267 269 268 255 255 288 282 266 265 260
299 301 296 304 292 281 198 87 77 349 9 22 17 39 101 109 94 85 60 38 204 148 125 126 129 136 98 79 83 92 92 95 110 122 124 121 115 114 114 111 107 105 106 107 107 111 114 116 109 102 91 93 110 119 115 110 104 96 111 151 186 149 228 231 235 252 253 258 265 261 259 259 266 265 262 251 252 261 264 251 252 250 247 247 248 249 256 256 251 263 251 244 243 251 259 252 250
288 249 261 275 293 259 117 147 102 138 270 76 86 116 127 111 78 88 112 204 193 174 171 136 126 122 116 107 95 92 96 110 123 121 118 118 118 115 111 108 107 107 106 106 108 105 104 104 102 91 83 76 71 78 74 71 84 100 90 52 346 252 270 301 273 253 264 278 286 290 281 262 258 262 264 266 263 257 259 259 249 252 248 252 250 255 253 264 253 236 257 248 243 243 247 240 243
269 280 277 273 209 280 107 145 167 184 277 143 139 148 135 129 140 152 177 215 182 181 151 125 153 127 120 125 131 132 128 127 127 124 123 122 121 120 117 115 115 109 106 109 104 105 104 100 95 90 87 77 70 64 76 68 56 48 353 3 318 325 334 318 311 329 331 316 308 303 297 283 276 273 271 260 253 259 266 269 258 252 250 243 234 245 240 262 282 272 255 261 238 241 245 237 234
234 272 280 280 267 319 119 130 159 171 248 168 179 196 164 168 168 181 205 213 193 201 140 97 202 154 142 143 147 149 143 138 134 134 129 125 122 121 117 113 108 105 110 109 110 110 105 96 88 83 75 72 63 59 63 63 51 38 7 14 349 334 6 350 312 316 313 308 311 306 303 309 304 299 292 285 275 267 262 264 265 260 257 252 242 240 243 246 248 265 266 251 251 232 242 234 234
262 246 246 261 26 307 221 138 159 171 282 295 192 231 177 168 181 185 207 198 205 195 209 197 218 202 154 162 161 157 149 145 137 133 130 129 126 124 119 113 108 109 112 113 110 104 96 92 92 92 90 82 75 71 77 78 65 54 65 30 62 20 0 344 312 307 333 325 317 341 348 348 336 321 309 299 294 293 275 268 266 265 264 265 252 246 245 246 244 242 254 252 247 249 234 236 229
229 251 275 275 282 238 286 24 80 165 198 238 184 241 214 192 186 189 179 182 178 193 192 192 204 215 183 139 160 160 149 146 137 129 125 122 120 114 110 111 112 108 100 97 96 93 91 91 89 86 82 78 73 72 76 77 82 94 77 134 127 124 137 346 338 322 332 317 294 308 311 304 300 295 292 289 285 283 285 280 271 268 271 268 250 237 238 242 244 237 244 248 242 247 246 235 225
281 231 252 296 325 284 223 256 277 268 232 186 206 262 257 179 201 192 168 183 193 186 193 195 190 197 199 180 175 162 149 139 136 130 123 119 112 110 108 105 102 100 95 85 85 87 89 86 83 82 80 72 70 67 62 63 60 50 43 36 37 39 43 28 24 7 349 347 343 330 311 317 305 297 294 293 289 287 285 282 276 268 261 256 250 246 240 239 240 249 242 242 251 246 253 244 234
269 24 80 253 274 283 273 260 267 266 292 130 197 272 294 167 198 189 173 190 192 193 202 201 201 201 204 194 178 176 158 144 137 132 131 124 123 117 111 108 109 105 98 95 88 83 80 77 76 78 82 85 76 71 67 73 73 67 59 53 50 37 35 49 17 6 343 339 333 333 331 327 322 316 310 300 292 287 283 280 276 272 266 258 252 251 247 242 243 238 234 236 247 249 243 250 242
281 74 23 271 266 260 268 269 252 274 284 232 205 240 274 283 206 178 173 192 191 198 203 200 202 202 200 193 182 167 161 156 148 143 131 127 123 119 115 117 116 112 114 108 97 92 82 84 88 90 91 95 91 86 78 74 82 76 74 71 58 56 41 41 19 8 345 330 329 333 322 325 325 322 317 312 307 295 291 287 281 275 271 267 263 255 254 255 255 251 245 246 246 246 253 247 242
21 31 5 282 278 279 275 272 271 276 285 281 227 212 253 247 109 158 169 197 201 204 206 202 202 200 197 191 184 173 167 160 159 150 144 138 127 121 123 117 111 115 113 106 100 96 103 106 110 117 117 114 102 92 93 87 85 84 80 77 77 60 59 42 3 25 4 350 328 342 330 326 320 319 315 311 307 306 302 296 292 287 282 280 268 260 255 257 257 258 251 243 243 235 229 246 244
83 344 276 265 259 252 256 260 268 264 253 253 263 176 242 276 136 174 184 220 216 209 202 203 200 195 191 188 182 177 170 171 163 151 148 139 135 132 121 119 121 109 106 107 111 125 137 154 154 149 131 118 110 103 98 102 100 95 88 82 79 79 59 56 330 8 328 332 324 326 332 328 330 322 320 315 314 312 312 308 301 293 286 281 275 270 270 266 263 260 255 251 248 245 237 241 239
318 274 275 251 232 239 225 247 256 271 245 254 238 175 239 281 177 179 182 208 220 201 195 193 193 192 189 186 183 180 177 176 172 164 158 151 145 141 144 138 125 124 124 137 150 157 166 161 151 124 115 107 107 106 108 105 106 101 101 96 84 66 39 359 323 296 318 306 308 317 311 314 308 319 320 316 314 311 311 311 308 306 301 292 280 273 264 259 258 260 260 255 251 250 248 243 243
271 272 275 288 268 230 234 231 226 244 256 112 132 202 211 256 176 183 194 180 210 200 189 189 190 189 186 183 186 183 179 179 175 171 167 162 162 167 167 152 149 141 145 146 140 139 120 100 100 105 104 100 108 116 132 125 133 138 114 106 48 17 347 323 324 314 312 306 295 291 289 284 281 289 288 299 307 315 313 308 306 302 299 298 292 286 280 272 265 257 253 256 254 253 250 246 243
235 256 254 275 295 271 262 213 225 217 280 117 118 162 222 228 268 4 179 186 198 204 195 188 187 186 185 184 185 184 183 184 182 180 173 171 176 171 171 155 145 145 144 142 121 95 87 76 65 49 84 120 126 153 160 166 182 173 254 297 301 305 287 288 293 291 290 288 290 289 289 288 285 276 275 279 278 293 301 302 303 302 300 297 296 293 289 282 272 263 259 253 252 249 246 245 243
232 255 295 284 282 289 278 273 282 291 238 122 163 113 261 279 235 118 182 185 182 196 199 191 188 185 184 184 185 186 188 190 188 185 180 177 179 174 166 165 160 159 158 137 114 113 97 344 347 297 136 128 152 175 186 213 212 230 258 278 290 282 283 280 279 280 276 277 279 279 279 281 286 280 276 268 274 283 283 284 289 291 291 293 292 291 288 284 280 274 265 257 252 248 245 244 245
305 328 279 273 287 286 283 279 282 287 313 61 152 261 267 271 90 114 107 67 120 187 202 191 190 187 184 186 188 189 191 193 191 191 189 178 178 178 174 183 177 170 178 185 192 212 229 243 245 249 252 241 251 262 269 270 279 279 281 277 278 283 284 284 281 282 280 275 274 274 272 273 272 278 278 278 271 268 270 271 273 276 281 285 287 287 287 286 282 273 266 261 258 257 252 246 244
202 292 266 245 261 15 274 324 312 302 303 291 223 229 276 282 121 109 121 129 189 189 189 186 186 186 185 190 193 195 195 195 196 194 192 189 184 187 189 196 206 204 210 221 224 227 232 239 243 250 254 259 261 263 267 274 274 272 269 272 272 274 278 284 283 284 283 280 279 277 276 271 269 270 270 269 265 262 263 266 266 265 268 273 277 280 280 281 280 280 275 265 257 250 252 243 235
101 227 243 5 30 293 294 263 241 316 247 260 246 251 244 133 163 145 150 165 172 186 186 190 187 187 188 195 196 198 199 199 200 198 198 194 197 198 206 209 216 222 226 227 234 235 238 242 248 254 258 257 258 260 261 262 259 259 260 262 262 265 266 268 273 275 277 278 276 273 271 272 270 265 264 262 260 258 257 255 259 265 265 264 265 270 273 274 275 274 273 273 268 257 250 247 240
282 253 344 83 21 296 261 281 259 239 270 272 248 251 264 260 252 160 156 188 176 185 194 190 189 192 194 198 199 199 200 202 201 204 202 202 205 209 215 220 226 228 234 239 243 244 245 248 253 261 266 269 267 264 261 259 260 259 258 258 259 259 262 265 267 270 270 271 268 268 267 266 264 262 261 259 257 258 258 255 253 253 257 261 261 261 264 267 269 269 269 269 270 269 262 254 240
251 320 53 273 248 238 169 259 265 273 265 276 251 260 260 258 261 154 176 181 178 184 189 189 194 198 203 200 201 200 200 201 201 204 203 205 209 216 220 227 234 236 240 246 247 246 243 243 252 259 263 264 267 269 268 262 257 256 256 257 257 258 257 260 261 263 264 264 265 266 268 268 270 270 269 269 266 262 259 257 257 258 254 253 256 258 258 260 262 265 265 265 263 264 265 261 252
237 263 251 214 268 262 269 225 270 285 278 286 277 271 264 229 257 129 128 172 175 178 186 197 200 202 203 202 201 200 201 202 202 203 205 205 212 221 224 229 236 237 237 235 240 242 246 252 258 259 258 257 259 260 260 260 258 257 257 255 255 256 258 259 259 261 263 264 266 269 270 270 270 272 270 272 274 273 269 267 263 261 257 256 254 253 255 257 258 257 261 261 261 262 262 263 261
189 216 238 194 232 324 293 279 262 256 270 267 282 274 259 290 91 128 100 107 166 180 191 201 207 208 205 206 202 203 203 201 201 202 205 210 217 223 232 231 239 246 249 251 246 248 255 259 262 260 261 262 263 264 265 265 265 262 261 258 256 254 255 256 258 260 262 264 267 268 269 272 274 272 274 273 271 271 272 271 270 266 263 260 258 254 250 252 254 256 255 259 262 261 260 260 259
282 277 271 269 265 233 237 261 230 239 247 255 263 268 273 138 124 118 11 110 139 188 210 214 216 211 208 205 204 203 203 198 198 201 208 209 210 222 236 236 242 251 253 254 259 255 253 255 255 259 258 260 266 266 264 267 266 267 266 265 262 261 260 259 259 261 261 262 262 263 265 266 267 270 271 272 270 269 269 268 268 268 266 264 261 260 256 249 250 252 255 256 260 260 260 260 261